Terminal Aerodrome Forecast
Issued by NWS

Home | Current Version | Previous Version | Text Only | Print | Product List | Glossary On
Versions: 1 2 3 4 5 6 7 8 9 10 11 12 13 14 15 16 17 18 19 20 21 22 23
000
FTUS43 KJKL 251100
TAFSME
TAF
KSME 251127Z 2512/2612 00000KT 1/4SM FG VV001
     FM251230 VRB03KT 3SM BR SCT004 BKN010
     FM251330 VRB05KT P6SM FEW020 SCT040
     FM260700 VRB03KT 3SM BR SCT100=

USA.gov is the U.S. government's official web portal to all federal, state and local government web resources and services.